Home > Weather > Austin > Past weeks

Flag for USA Weather for the Past 2 Weeks in Austin, Texas, USA

Now
85 °F

Sunny.


Feels Like: 83 °F
Forecast: 54 / 86 °F
Wind: 5 mph from North

Location: Camp Mabry / Austin City

Current Time: May 5, 2016 at 2:13:33 PM

Latest Report: May 5, 2016 at 1:51 PM


Visibility: 10 mi

Pressure: 30.03 "Hg

Humidity: 34%

Dew Point: 53 °F

Location of AustinLocation

Historic Weather in Austin — Graph

°F

Austin Temperature Yesterday

Maximum temperature yesterday: 86 °F (at 4:51 PM)
Minimum temperature yesterday: 54 °F (at 3:51 AM)
Average temperature yesterday: 71 °F

High & Low Weather Summary for the Past Weeks

 TemperatureHumidityPressure
High89 °F (Apr 27, 2:51 PM)100% (Apr 27, 2:58 AM)30.13 "Hg (Apr 27, 2:58 AM)
Low54 °F (May 4, 3:51 AM)15% (Apr 27, 2:51 PM)29.54 "Hg (Apr 29, 6:51 PM)
Average72 °F69%29.88 "Hg
* Reported Apr 20 12:51 PM — May 5 12:51 PM, Austin, Weather by CustomWeather, © 2016

Note: Actual official high and low records may vary slightly from our data, if they occured in-between our weather recording intervals... More about our weather records

Advertising

Austin Weather History for the Previous 24 Hours

Scroll right to see more
 ConditionsComfort  
Time TempWeatherWind HumidityBarometerVisibility
12:51 PM
Thu, May 5
84 °FSunny.7 mph35%30.05 "Hg10 mi
11:51 AM83 °FSunny.5 mph37%30.06 "Hg10 mi
10:51 AM80 °FSunny.6 mph39%30.07 "Hg10 mi
9:51 AM74 °FSunny.3 mph48%30.07 "Hg10 mi
8:51 AM69 °FSunny.5 mph57%30.06 "Hg10 mi
7:51 AM61 °FSunny.8 mph72%30.04 "Hg10 mi
6:51 AM61 °FClear.7 mph67%30.02 "Hg10 mi
5:51 AM61 °FClear.No wind70%30.00 "Hg10 mi
4:51 AM62 °FClear.No wind70%30.00 "Hg10 mi
3:51 AM62 °FClear.3 mph70%30.00 "Hg10 mi
2:51 AM64 °FClear.3 mph65%30.01 "Hg10 mi
1:51 AM66 °FClear.5 mph59%30.01 "Hg10 mi
12:51 AM68 °FClear.5 mph53%30.01 "Hg10 mi
11:51 PM
Wed, May 4
70 °FClear.3 mph49%30.01 "Hg10 mi
10:51 PM73 °FClear.5 mph43%30.00 "Hg10 mi
9:51 PM73 °FClear.No wind46%29.99 "Hg10 mi
8:51 PM77 °FSunny.5 mph37%29.97 "Hg10 mi
7:51 PM80 °FSunny.3 mph32%29.96 "Hg10 mi
6:51 PM84 °FSunny.6 mph30%29.96 "Hg10 mi
5:51 PM86 °FSunny.N/A26%29.96 "Hg10 mi
4:51 PM86 °FSunny.9 mph28%29.97 "Hg10 mi
3:51 PM85 °FSunny.7 mph31%29.99 "Hg10 mi
2:51 PM83 °FSunny.8 mph33%30.01 "Hg10 mi
Weather by CustomWeather, © 2016

See weather overviewHow to use our weather pages